DW9882 Weather Reports


Display with metric or nautical units.
time (UTC)temp
F
wind
direction
speed
MPH
gust
MPH
rain 1hr
in
rain 24hr
in
rain mn
in
humidity
%
barometer
mb
20260510065204 50 46 1.0 3.0 0.00 0.00 0.00 76 1023.8
20260510064704 50 46 0.0 3.0 0.00 0.00 0.00 76 1023.8
20260510064204 50 47 0.0 3.0 0.00 0.00 0.00 77 1023.9
20260510063704 50 50 0.0 0.0 0.00 0.00 0.00 77 1023.9
20260510063204 50 50 0.0 0.0 0.00 0.00 0.00 77 1023.9
20260510062204 50 50 0.0 0.0 0.00 0.00 0.00 77 1023.9
20260510061203 50 50 0.0 0.0 0.00 0.00 0.00 76 1023.7
20260510060204 50 50 0.0 0.0 0.00 0.00 0.00 76 1023.8
20260510055703 50 50 0.0 0.0 0.00 0.00 0.00 76 1023.8
20260510055204 50 50 0.0 0.0 0.00 0.00 0.00 76 1023.8
20260510054704 50 50 0.0 0.0 0.00 0.00 0.00 76 1023.7
20260510054204 50 50 0.0 0.0 0.00 0.00 0.00 76 1023.7
20260510052204 50 50 0.0 0.0 0.00 0.00 0.00 76 1023.8
20260510051703 50 50 0.0 0.0 0.00 0.00 0.00 76 1023.6
20260510051204 50 50 0.0 1.0 0.00 0.00 0.00 76 1023.7
20260510050203 50 50 0.0 0.0 0.00 0.00 0.00 76 1023.9
20260510045204 50 50 0.0 0.0 0.00 0.00 0.00 75 1024.1
20260510044703 50 50 1.0 3.0 0.00 0.00 0.00 76 1024.1
20260510044204 50 50 0.0 0.0 0.00 0.00 0.00 76 1024.0
20260510043703 50 50 0.0 0.0 0.00 0.00 0.00 75 1023.9
20260510043204 50 50 0.0 2.0 0.00 0.00 0.00 74 1023.8
20260510042704 51 49 1.0 3.0 0.00 0.00 0.00 74 1023.7
20260510042204 51 39 0.0 3.0 0.00 0.00 0.00 73 1023.9
20260510041703 51 39 0.0 1.0 0.00 0.00 0.00 73 1024.1
20260510041203 51 42 2.0 5.0 0.00 0.00 0.00 71 1024.0
20260510040203 51 31 1.0 5.0 0.00 0.00 0.00 70 1024.0
20260510035703 51 54 1.0 7.0 0.00 0.00 0.00 68 1023.9
20260510034704 52 35 3.0 10.0 0.00 0.00 0.00 66 1023.6
20260510033703 52 11 1.0 3.0 0.00 0.00 0.00 66 1023.8
20260510032704 52 14 2.0 7.0 0.00 0.00 0.00 66 1023.8
20260510032203 52 24 5.0 12.0 0.00 0.00 0.00 66 1023.8
20260510031704 52 4 2.0 12.0 0.00 0.00 0.00 66 1023.7
20260510030704 52 11 7.0 15.0 0.00 0.00 0.00 67 1023.4
20260510030204 52 355 3.0 10.0 0.00 0.00 0.00 67 1023.2
20260510025704 52 7 5.0 12.0 0.00 0.00 0.00 68 1022.7
20260510024705 52 355 5.0 12.0 0.00 0.00 0.00 68 1022.1
20260510024205 52 19 6.0 13.0 0.00 0.00 0.00 68 1021.9
20260510023705 53 15 7.0 14.0 0.00 0.00 0.00 68 1021.7
20260510022705 53 4 7.0 16.0 0.00 0.00 0.00 67 1021.3
20260510021705 54 13 5.0 15.0 0.00 0.00 0.00 67 1020.9
20260510021205 54 333 3.0 12.0 0.00 0.00 0.00 66 1020.7
20260510020206 54 4 6.0 15.0 0.00 0.00 0.00 65 1020.4
20260510015704 55 6 9.0 23.0 0.00 0.00 0.00 65 1020.3
20260510013705 56 354 6.0 15.0 0.00 0.00 0.00 60 1019.9
20260510013205 56 17 6.0 20.0 0.00 0.00 0.00 59 1019.8
20260510012705 57 344 7.0 14.0 0.00 0.00 0.00 58 1019.5
20260510012205 57 337 7.0 18.0 0.00 0.00 0.00 57 1019.1
20260510011705 58 14 11.0 25.0 0.00 0.00 0.00 55 1018.8
20260510011205 59 15 10.0 21.0 0.00 0.00 0.00 53 1018.3
20260510010704 60 349 12.0 26.0 0.00 0.00 0.00 51 1018.0
20260510010205 62 0 11.0 24.0 0.00 0.00 0.00 48 1017.8
20260510005705 65 344 10.0 26.0 0.00 0.00 0.00 42 1017.5
20260510005204 71 15 13.0 26.0 0.00 0.00 0.00 34 1016.9
20260510004705 73 357 4.0 10.0 0.00 0.00 0.00 21 1015.9
20260510004205 74 5 3.0 6.0 0.00 0.00 0.00 19 1015.4
20260510003705 74 5 2.0 6.0 0.00 0.00 0.00 20 1015.3
20260510003205 73 56 1.0 3.0 0.00 0.00 0.00 20 1015.2
20260510002205 73 60 3.0 8.0 0.00 0.00 0.00 20 1015.1
20260510001705 73 54 1.0 3.0 0.00 0.00 0.00 21 1014.9
20260510001205 73 83 0.0 3.0 0.00 0.00 0.00 22 1014.8
20260510000704 73 47 2.0 3.0 0.00 0.00 0.00 21 1014.8
20260510000205 73 36 2.0 3.0 0.00 0.00 0.00 21 1014.8
20260509235705 73 74 1.0 5.0 0.00 0.00 0.00 22 1014.8
20260509235205 73 96 1.0 3.0 0.00 0.00 0.00 22 1014.8
20260509234705 73 40 1.0 5.0 0.00 0.00 0.00 21 1014.7
20260509234205 73 112 0.0 3.0 0.00 0.00 0.00 22 1014.7
20260509233704 74 86 1.0 3.0 0.00 0.00 0.00 21 1014.7
20260509233204 74 84 1.0 3.0 0.00 0.00 0.00 23 1014.6
20260509232705 74 90 1.0 3.0 0.00 0.00 0.00 20 1014.5
20260509231705 74 39 1.0 3.0 0.00 0.00 0.00 22 1014.5
20260509230704 73 46 0.0 2.0 0.00 0.00 0.00 23 1014.4
20260509230205 73 46 1.0 3.0 0.00 0.00 0.00 21 1014.4
20260509225704 73 47 1.0 5.0 0.00 0.00 0.00 21 1014.4
20260509225205 73 15 1.0 3.0 0.00 0.00 0.00 21 1014.4
20260509224205 74 45 1.0 5.0 0.00 0.00 0.00 20 1014.4
20260509223704 74 89 1.0 3.0 0.00 0.00 0.00 20 1014.3
20260509223205 74 79 1.0 3.0 0.00 0.00 0.00 21 1014.2
20260509222705 74 87 2.0 3.0 0.00 0.00 0.00 20 1014.3
20260509221204 74 116 1.0 7.0 0.00 0.00 0.00 21 1014.2
20260509220704 74 114 2.0 3.0 0.00 0.00 0.00 21 1014.4
20260509220204 74 161 1.0 3.0 0.00 0.00 0.00 21 1014.3
20260509215204 74 90 0.0 3.0 0.00 0.00 0.00 22 1014.2
20260509214704 73 113 2.0 3.0 0.00 0.00 0.00 23 1014.4
20260509213705 73 141 2.0 7.0 0.00 0.00 0.00 22 1014.4
20260509213204 73 140 2.0 5.0 0.00 0.00 0.00 21 1014.3
20260509212205 73 109 3.0 7.0 0.00 0.00 0.00 22 1014.4
20260509211205 73 79 2.0 7.0 0.00 0.00 0.00 23 1014.4
20260509210204 73 110 2.0 13.0 0.00 0.00 0.00 24 1014.5
20260509205705 73 76 3.0 9.0 0.00 0.00 0.00 23 1014.5
20260509205205 73 85 2.0 7.0 0.00 0.00 0.00 23 1014.4
20260509204705 73 77 2.0 12.0 0.00 0.00 0.00 22 1014.4
20260509203204 74 45 3.0 12.0 0.00 0.00 0.00 22 1014.5
20260509201705 75 30 5.0 12.0 0.00 0.00 0.00 21 1014.6
20260509201204 75 104 3.0 8.0 0.00 0.00 0.00 22 1014.6
20260509200704 75 76 5.0 20.0 0.00 0.00 0.00 23 1014.7
20260509200205 75 80 3.0 12.0 0.00 0.00 0.00 23 1014.7
20260509195705 75 119 3.0 9.0 0.00 0.00 0.00 21 1014.8
20260509195204 75 61 5.0 14.0 0.00 0.00 0.00 22 1014.9
20260509194705 75 79 3.0 10.0 0.00 0.00 0.00 22 1014.9
20260509194204 75 41 5.0 14.0 0.00 0.00 0.00 21 1014.9
20260509193704 75 100 3.0 8.0 0.00 0.00 0.00 22 1014.9
20260509193204 75 105 5.0 12.0 0.00 0.00 0.00 21 1014.9
20260509192704 75 107 5.0 8.0 0.00 0.00 0.00 22 1014.9
20260509192204 74 109 4.0 8.0 0.00 0.00 0.00 21 1015.1
20260509191204 74 67 2.0 9.0 0.00 0.00 0.00 23 1015.2
20260509190704 74 79 3.0 14.0 0.00 0.00 0.00 21 1015.3
20260509190204 75 22 4.0 12.0 0.00 0.00 0.00 23 1015.2
20260509185204 74 41 3.0 9.0 0.00 0.00 0.00 23 1015.2
20260509184705 74 99 3.0 7.0 0.00 0.00 0.00 24 1015.1
20260509184204 74 98 3.0 7.0 0.00 0.00 0.00 24 1015.2
20260509183704 74 57 3.0 10.0 0.00 0.00 0.00 24 1015.2
20260509183204 74 54 2.0 8.0 0.00 0.00 0.00 24 1015.3
20260509182205 75 30 5.0 12.0 0.00 0.00 0.00 15 1015.4
20260509181704 75 43 6.0 16.0 0.00 0.00 0.00 15 1015.4
20260509181204 76 6 5.0 12.0 0.00 0.00 0.00 14 1015.3
20260509180705 75 357 2.0 9.0 0.00 0.00 0.00 16 1015.3
20260509174204 74 264 3.0 10.0 0.00 0.00 0.00 19 1015.4
20260509173704 74 48 2.0 8.0 0.00 0.00 0.00 17 1015.5
20260509173205 74 309 3.0 12.0 0.00 0.00 0.00 16 1015.4
20260509172704 74 270 5.0 12.0 0.00 0.00 0.00 16 1015.5
20260509172204 74 325 4.0 14.0 0.00 0.00 0.00 18 1015.5
20260509171704 73 306 2.0 9.0 0.00 0.00 0.00 20 1015.4
20260509171204 73 66 1.0 7.0 0.00 0.00 0.00 20 1015.3
20260509170705 73 60 2.0 8.0 0.00 0.00 0.00 19 1015.5
20260509170204 73 33 3.0 9.0 0.00 0.00 0.00 20 1015.4
20260509165204 73 181 3.0 6.0 0.00 0.00 0.00 19 1015.2
20260509164705 73 95 3.0 6.0 0.00 0.00 0.00 19 1015.2
20260509164204 72 282 2.0 7.0 0.00 0.00 0.00 19 1015.4
20260509163705 72 325 2.0 6.0 0.00 0.00 0.00 19 1015.4
20260509163204 72 22 2.0 8.0 0.00 0.00 0.00 20 1015.3
20260509162704 72 34 6.0 12.0 0.00 0.00 0.00 19 1015.4
20260509161704 72 24 3.0 12.0 0.00 0.00 0.00 19 1015.4
20260509161204 72 348 5.0 12.0 0.00 0.00 0.00 18 1015.4
20260509160704 71 319 0.0 6.0 0.00 0.00 0.00 24 1015.4
20260509160204 71 276 2.0 5.0 0.00 0.00 0.00 19 1015.4
20260509155704 71 337 2.0 8.0 0.00 0.00 0.00 21 1015.5
20260509155204 71 279 2.0 7.0 0.00 0.00 0.00 20 1015.4
20260509154704 70 316 1.0 3.0 0.00 0.00 0.00 23 1015.4
20260509153705 69 24 1.0 6.0 0.00 0.00 0.00 22 1015.4
20260509153204 69 347 3.0 10.0 0.00 0.00 0.00 20 1015.5
20260509152704 69 355 2.0 9.0 0.00 0.00 0.00 21 1015.5
20260509152204 68 273 2.0 8.0 0.00 0.00 0.00 23 1015.5
20260509151704 67 244 0.0 15.0 0.00 0.00 0.00 26 1015.5
20260509151204 67 356 1.0 10.0 0.00 0.00 0.00 25 1015.7
20260509150704 66 50 2.0 8.0 0.00 0.00 0.00 28 1015.6
20260509150204 64 262 2.0 8.0 0.00 0.00 0.00 29 1015.6
20260509145704 63 176 1.0 5.0 0.00 0.00 0.00 30 1015.6
20260509145204 63 127 0.0 2.0 0.00 0.00 0.00 31 1015.6
20260509144704 62 110 0.0 2.0 0.00 0.00 0.00 32 1015.7
20260509144204 61 110 1.0 2.0 0.00 0.00 0.00 33 1015.7
20260509143703 61 109 1.0 3.0 0.00 0.00 0.00 35 1015.6
20260509143204 61 351 0.0 1.0 0.00 0.00 0.00 38 1015.8
20260509142703 60 344 0.0 2.0 0.00 0.00 0.00 36 1015.7
20260509142204 60 344 1.0 3.0 0.00 0.00 0.00 35 1015.7
20260509141704 60 44 1.0 3.0 0.00 0.00 0.00 34 1015.6
20260509140704 59 44 2.0 12.0 0.00 0.00 0.00 34 1015.7
20260509140204 56 68 7.0 12.0 0.00 0.00 0.00 39 1015.6
20260509135704 54 179 1.0 3.0 0.00 0.00 0.00 49 1015.8
20260509135204 54 251 0.0 1.0 0.00 0.00 0.00 56 1015.9
20260509133204 54 251 0.0 2.0 0.00 0.00 0.00 53 1015.7
20260509132704 54 251 0.0 0.0 0.00 0.00 0.00 53 1015.7
20260509132204 54 251 0.0 2.0 0.00 0.00 0.00 53 1015.7
20260509131704 54 251 1.0 2.0 0.00 0.00 0.00 52 1015.6
20260509131204 55 251 0.0 1.0 0.00 0.00 0.00 52 1015.6
20260509130704 55 251 0.0 1.0 0.00 0.00 0.00 52 1015.6
20260509130204 55 251 0.0 3.0 0.00 0.00 0.00 49 1015.4
20260509125704 55 251 0.0 0.0 0.00 0.00 0.00 49 1015.4
20260509124704 56 251 0.0 1.0 0.00 0.00 0.00 46 1015.3
20260509124204 56 251 0.0 1.0 0.00 0.00 0.00 45 1015.2
20260509123704 55 251 0.0 0.0 0.00 0.00 0.00 44 1015.0
20260509123204 55 251 0.0 0.0 0.00 0.00 0.00 44 1015.0
20260509122704 55 251 0.0 0.0 0.00 0.00 0.00 43 1015.0
20260509121703 54 264 2.0 7.0 0.00 0.00 0.00 46 1014.8
20260509121203 53 213 0.0 1.0 0.00 0.00 0.00 47 1014.9
20260509120704 52 213 0.0 5.0 0.00 0.00 0.00 49 1014.8
20260509120204 51 257 2.0 8.0 0.00 0.00 0.00 50 1014.7
20260509115703 50 265 1.0 3.0 0.00 0.00 0.00 54 1014.7
20260509115204 49 249 2.0 3.0 0.00 0.00 0.00 58 1014.7
20260509114204 49 206 1.0 3.0 0.00 0.00 0.00 61 1014.7
20260509113703 49 205 1.0 2.0 0.00 0.00 0.00 60 1014.6
20260509113204 49 205 1.0 3.0 0.00 0.00 0.00 60 1014.5
20260509112704 50 189 0.0 0.0 0.00 0.00 0.00 60 1014.4
20260509112204 50 189 0.0 1.0 0.00 0.00 0.00 59 1014.4
20260509111704 50 189 0.0 2.0 0.00 0.00 0.00 59 1014.3
20260509111203 50 189 0.0 3.0 0.00 0.00 0.00 58 1014.2
20260509110704 50 189 1.0 2.0 0.00 0.00 0.00 58 1014.2
20260509110203 51 189 1.0 2.0 0.00 0.00 0.00 58 1014.4
20260509105703 51 189 0.0 1.0 0.00 0.00 0.00 57 1014.4
20260509105204 51 189 0.0 2.0 0.00 0.00 0.00 56 1014.4
20260509104205 52 189 0.0 2.0 0.00 0.00 0.00 55 1014.2
20260509103704 52 188 0.0 1.0 0.00 0.00 0.00 54 1014.3
20260509102704 52 188 0.0 0.0 0.00 0.00 0.00 54 1014.2
20260509102203 52 188 0.0 6.0 0.00 0.00 0.00 55 1014.3
20260509101704 52 113 1.0 3.0 0.00 0.00 0.00 55 1014.2
20260509101203 51 178 0.0 2.0 0.00 0.00 0.00 55 1014.4
20260509100704 51 178 0.0 2.0 0.00 0.00 0.00 57 1014.4
20260509095704 51 269 1.0 6.0 0.00 0.00 0.00 59 1014.5
20260509095205 50 214 1.0 5.0 0.00 0.00 0.00 60 1014.4
20260509094704 50 194 0.0 1.0 0.00 0.00 0.00 60 1014.4
20260509094204 50 194 0.0 0.0 0.00 0.00 0.00 61 1014.5
20260509093204 50 194 0.0 0.0 0.00 0.00 0.00 62 1014.5
20260509092704 50 194 0.0 1.0 0.00 0.00 0.00 64 1014.4
20260509092203 50 194 0.0 1.0 0.00 0.00 0.00 66 1014.4
20260509091204 50 194 0.0 0.0 0.00 0.00 0.00 68 1014.3
20260509090704 50 194 0.0 1.0 0.00 0.00 0.00 69 1014.2
20260509090205 50 194 0.0 2.0 0.00 0.00 0.00 70 1014.2
20260509085704 50 194 0.0 1.0 0.00 0.00 0.00 69 1014.2
20260509085203 50 194 0.0 1.0 0.00 0.00 0.00 69 1014.1
20260509084704 50 194 0.0 0.0 0.00 0.00 0.00 69 1014.0
20260509083704 50 194 0.0 0.0 0.00 0.00 0.00 69 1014.0
20260509083203 50 194 0.0 2.0 0.00 0.00 0.00 69 1014.0
20260509082704 50 194 0.0 0.0 0.00 0.00 0.00 70 1014.0
20260509082204 50 194 0.0 0.0 0.00 0.00 0.00 70 1014.0
20260509080704 50 194 0.0 3.0 0.00 0.00 0.00 71 1014.0
20260509080203 50 194 1.0 3.0 0.00 0.00 0.00 71 1014.0
20260509075704 50 184 0.0 1.0 0.00 0.00 0.00 71 1014.0
20260509075204 51 184 0.0 0.0 0.00 0.00 0.00 70 1014.1
20260509074704 51 184 0.0 2.0 0.00 0.00 0.00 70 1014.2
20260509074203 51 184 0.0 0.0 0.00 0.00 0.00 70 1014.3
20260509073704 51 184 0.0 0.0 0.00 0.00 0.00 69 1014.3
20260509073204 51 184 0.0 0.0 0.00 0.00 0.00 69 1014.3
20260509072704 51 184 0.0 0.0 0.00 0.00 0.00 68 1014.2
20260509072203 52 184 0.0 0.0 0.00 0.00 0.00 68 1014.2
20260509071703 52 184 0.0 0.0 0.00 0.00 0.00 68 1014.3
20260509070703 52 184 0.0 0.0 0.00 0.00 0.00 68 1014.3
20260509070203 52 184 0.0 0.0 0.00 0.00 0.00 67 1014.3
20260509065704 52 184 0.0 0.0 0.00 0.00 0.00 67 1014.4